This is the latest recevied weather packets stored in our database for station/object DM3DP. If no packets are shown the sender has not sent any weather packets the latest 10 day(s).
| Time | Temp. | Humidity | Pressure | Rain* | Wind** | Luminosity | Snow |
|---|---|---|---|---|---|---|---|
| 1777722544 | 26.11° C | 44% | 1016.2 hPa | 0 mm | - | 647 W/m² | - |
| 1777722214 | 25.56° C | 45% | 1016.2 hPa | 0 mm | - | 562 W/m² | - |
| 1777721884 | 25.56° C | 43% | 1016.3 hPa | 0 mm | - | 415 W/m² | - |
| 1777721553 | 25.56° C | 43% | 1016.3 hPa | 0 mm | - | 366 W/m² | - |
| 1777721224 | 25.56° C | 44% | 1016.4 hPa | 0 mm | - | 559 W/m² | - |
| 1777720893 | 25.56° C | 43% | 1016.5 hPa | 0 mm | - | 691 W/m² | - |
| 1777720563 | 25.56° C | 43% | 1016.6 hPa | 0 mm | - | 769 W/m² | - |
| 1777720234 | 25° C | 45% | 1016.6 hPa | 0 mm | - | 728 W/m² | - |
| 1777719903 | 25° C | 45% | 1016.6 hPa | 0 mm | - | 720 W/m² | - |
| 1777719573 | 25° C | 45% | 1016.6 hPa | 0 mm | - | 667 W/m² | - |
| 1777719243 | 25° C | 46% | 1016.9 hPa | 0 mm | - | 693 W/m² | - |
| 1777718914 | 25° C | 46% | 1017 hPa | 0 mm | - | 706 W/m² | - |
| 1777718584 | 25° C | 46% | 1017 hPa | 0 mm | - | 499 W/m² | - |
| 1777718253 | 24.44° C | 47% | 1017 hPa | 0 mm | - | 813 W/m² | - |
| 1777717924 | 23.89° C | 45% | 1017 hPa | 0 mm | - | 607 W/m² | - |
| 1777717594 | 23.89° C | 48% | 1017.1 hPa | 0 mm | - | 679 W/m² | - |
| 1777717263 | 23.89° C | 48% | 1017.2 hPa | 0 mm | - | 687 W/m² | - |
| 1777716934 | 23.33° C | 46% | 1017.4 hPa | 0 mm | - | 746 W/m² | - |
| 1777716603 | 23.33° C | 46% | 1017.5 hPa | 0 mm | - | 668 W/m² | - |
| 1777716273 | 23.33° C | 48% | 1017.6 hPa | 0 mm | - | 697 W/m² | - |
| 1777715944 | 22.78° C | 46% | 1017.6 hPa | 0 mm | - | 633 W/m² | - |
| 1777715613 | 22.78° C | 46% | 1017.6 hPa | 0 mm | - | 570 W/m² | - |
| 1777715283 | 22.78° C | 46% | 1017.6 hPa | 0 mm | - | 584 W/m² | - |
| 1777714953 | 22.78° C | 45% | 1017.7 hPa | 0 mm | - | 702 W/m² | - |
| 1777714623 | 22.22° C | 46% | 1017.8 hPa | 0 mm | - | 652 W/m² | - |
* Rain latest hour (hover to see other rain measurements)
** Current wind speed in m/s (hover to see current wind gust speed)